ELF131 USCM-UWKD

Flight info

Callsign ELF131
Flight time N/A
Altitude 38000
Route NERNI1K NERNI T566 ROGMU N984 NOGBA N985 ORTIM ORTIM1R
Aircraft A20N/M-SDE2E3FGHIRWXY/LB1

Departure

Time 2026-04-28 18:11
Airport Magnitogorsk International Airport (USCM)

Arrival

Time N/A
Airport Kazan International Airport (UWKD)
Time Latitude Longitude Altitude Speed Heading
2026-04-28 17:44 53.39057 58.75826 1427 ft 0 kts 285°
2026-04-28 17:57 53.39055 58.75838 1427 ft 2 kts 286°
2026-04-28 17:57 53.39054 58.75846 1427 ft 0 kts 291°
2026-04-28 18:03 53.39054 58.75845 1427 ft 0 kts 292°
2026-04-28 18:03 53.39059 58.75839 1427 ft 1 kts 328°
2026-04-28 18:04 53.39079 58.75845 1426 ft 5 kts 20°
2026-04-28 18:04 53.39118 58.75898 1426 ft 8 kts 42°
2026-04-28 18:04 53.39169 58.75944 1425 ft 9 kts 21°
2026-04-28 18:04 53.39217 58.75974 1424 ft 6 kts 19°
2026-04-28 18:05 53.39255 58.75995 1424 ft 1 kts 13°
2026-04-28 18:05 53.39256 58.75995 1424 ft 0 kts 13°
2026-04-28 18:05 53.39264 58.75998 1424 ft 1 kts 13°
2026-04-28 18:05 53.39275 58.76003 1424 ft 2 kts 13°
2026-04-28 18:06 53.39291 58.76009 1423 ft 3 kts 13°
2026-04-28 18:06 53.39297 58.76011 1423 ft 0 kts 13°
2026-04-28 18:06 53.39307 58.76002 1423 ft 7 kts 320°
2026-04-28 18:07 53.39340 58.75847 1423 ft 15 kts 287°
2026-04-28 18:07 53.39355 58.75759 1423 ft 5 kts 286°
2026-04-28 18:07 53.39369 58.75687 1423 ft 9 kts 295°
2026-04-28 18:07 53.39434 58.75632 1422 ft 15 kts
2026-04-28 18:08 53.39570 58.75687 1421 ft 26 kts 16°
2026-04-28 18:08 53.39783 58.75791 1420 ft 35 kts 16°
2026-04-28 18:08 53.40014 58.75902 1417 ft 34 kts 15°
2026-04-28 18:08 53.40245 58.76013 1418 ft 34 kts 16°
2026-04-28 18:09 53.40477 58.76127 1412 ft 32 kts 16°
2026-04-28 18:09 53.40623 58.76217 1414 ft 15 kts 39°
2026-04-28 18:09 53.40672 58.76298 1412 ft 7 kts 22°
2026-04-28 18:09 53.40694 58.76262 1415 ft 5 kts 269°
2026-04-28 18:10 53.40648 58.76210 1413 ft 15 kts 196°
2026-04-28 18:10 53.40325 58.76054 1416 ft 80 kts 196°
2026-04-28 18:10 53.39579 58.75695 1420 ft 142 kts 196°
2026-04-28 18:10 53.38558 58.75214 1797 ft 156 kts 196°
2026-04-28 18:11 53.37527 58.74717 2556 ft 150 kts 203°
2026-04-28 18:11 53.36763 58.73637 3140 ft 150 kts 247°
2026-04-28 18:11 53.36710 58.71743 3426 ft 181 kts 278°
2026-04-28 18:11 53.37052 58.69509 3633 ft 218 kts 282°
2026-04-28 18:12 53.37283 58.66859 4091 ft 239 kts 272°
2026-04-28 18:12 53.37386 58.64047 4972 ft 243 kts 271°
2026-04-28 18:12 53.37475 58.61213 5909 ft 245 kts 271°
2026-04-28 18:12 53.37568 58.58347 6818 ft 249 kts 270°
2026-04-28 18:13 53.37666 58.55437 7747 ft 251 kts 269°
2026-04-28 18:13 53.37766 58.52552 8724 ft 252 kts 268°
2026-04-28 18:13 53.37869 58.49571 9713 ft 254 kts 266°
2026-04-28 18:13 53.37972 58.46594 10567 ft 261 kts 266°
2026-04-28 18:14 53.38074 58.43487 11026 ft 280 kts 267°
2026-04-28 18:14 53.38187 58.40151 11704 ft 292 kts 268°
2026-04-28 18:14 53.38307 58.36716 12562 ft 298 kts 267°
2026-04-28 18:14 53.38430 58.33243 13493 ft 301 kts 267°
2026-04-28 18:15 53.38551 58.29732 14360 ft 304 kts 267°
2026-04-28 18:15 53.38671 58.26180 15150 ft 308 kts 266°
2026-04-28 18:15 53.38791 58.22575 15944 ft 312 kts 266°
2026-04-28 18:15 53.38912 58.18929 16743 ft 315 kts 266°
2026-04-28 18:16 53.39034 58.15246 17512 ft 319 kts 266°
2026-04-28 18:16 53.39155 58.11513 18261 ft 323 kts 266°
2026-04-28 18:16 53.39275 58.07734 18922 ft 326 kts 266°
2026-04-28 18:16 53.39397 58.03917 19573 ft 330 kts 266°
2026-04-28 18:17 53.39518 58.00062 20272 ft 333 kts 266°
2026-04-28 18:17 53.39639 57.96177 20946 ft 336 kts 266°
2026-04-28 18:17 53.39932 57.92248 21604 ft 346 kts 274°
2026-04-28 18:17 53.40699 57.88359 22220 ft 361 kts 287°
2026-04-28 18:18 53.41992 57.84647 22847 ft 374 kts 294°
2026-04-28 18:18 53.43544 57.81096 23446 ft 382 kts 299°
2026-04-28 18:18 53.45254 57.77622 23962 ft 389 kts 301°
2026-04-28 18:18 53.46433 57.75335 24313 ft 392 kts 301°
2026-04-28 18:19 53.48849 57.70714 24952 ft 396 kts 301°
2026-04-28 18:19 53.50661 57.67214 25427 ft 399 kts 301°
2026-04-28 18:19 53.52470 57.63671 25863 ft 401 kts 300°
2026-04-28 18:19 53.54280 57.60077 26303 ft 404 kts 300°
2026-04-28 18:20 53.56093 57.56443 26733 ft 407 kts 300°
2026-04-28 18:20 53.57911 57.52778 27160 ft 410 kts 300°
2026-04-28 18:20 53.59741 57.49075 27570 ft 413 kts 300°
2026-04-28 18:20 53.61582 57.45340 27965 ft 416 kts 300°
2026-04-28 18:21 53.63436 57.41577 28365 ft 419 kts 300°
2026-04-28 18:21 53.65301 57.37790 28817 ft 421 kts 299°
2026-04-28 18:21 53.67148 57.34036 29233 ft 422 kts 299°
2026-04-28 18:21 53.69028 57.30207 29594 ft 425 kts 299°
2026-04-28 18:22 53.70921 57.26345 29949 ft 429 kts 299°
2026-04-28 18:22 53.72826 57.22454 30260 ft 431 kts 299°
2026-04-28 18:22 53.74740 57.18537 30524 ft 433 kts 299°
2026-04-28 18:22 53.76664 57.14595 30792 ft 436 kts 299°
2026-04-28 18:23 53.78598 57.10630 31108 ft 437 kts 299°
2026-04-28 18:23 53.80532 57.06661 31511 ft 437 kts 299°
2026-04-28 18:23 53.82463 57.02695 31882 ft 436 kts 299°
2026-04-28 18:23 53.84388 56.98733 32345 ft 435 kts 299°
2026-04-28 18:24 53.86304 56.94784 32743 ft 434 kts 299°
2026-04-28 18:24 53.87571 56.92164 32964 ft 434 kts 299°
2026-04-28 18:24 53.90131 56.86858 33405 ft 434 kts 299°
2026-04-28 18:24 53.92042 56.82890 33746 ft 434 kts 299°
2026-04-28 18:25 53.93952 56.78917 34058 ft 435 kts 299°
2026-04-28 18:25 53.95889 56.74965 34314 ft 439 kts 303°
2026-04-28 18:25 53.98338 56.71659 34491 ft 461 kts 320°
2026-04-28 18:26 54.04307 56.67176 35128 ft 473 kts 332°
2026-04-28 18:26 54.07402 56.65328 35440 ft 472 kts 332°
2026-04-28 18:26 54.10494 56.63470 35699 ft 471 kts 332°
2026-04-28 18:26 54.13562 56.61538 35920 ft 469 kts 331°
2026-04-28 18:27 54.15581 56.60211 36065 ft 469 kts 330°
2026-04-28 18:27 54.19623 56.57450 36374 ft 467 kts 329°
2026-04-28 18:27 54.22630 56.55335 36579 ft 467 kts 329°
2026-04-28 18:27 54.25588 56.53228 36793 ft 467 kts 329°
2026-04-28 18:28 54.28622 56.51056 37079 ft 466 kts 329°
2026-04-28 18:28 54.31567 56.48945 37346 ft 464 kts 329°
2026-04-28 18:28 54.34546 56.46811 37583 ft 464 kts 329°
2026-04-28 18:28 54.37522 56.44678 37770 ft 464 kts 330°
2026-04-28 18:29 54.40495 56.42546 37956 ft 463 kts 330°
2026-04-28 18:29 54.46006 56.37263 38045 ft 440 kts 307°
2026-04-28 18:29 54.47826 56.33207 38039 ft 420 kts 289°
2026-04-28 18:30 54.48785 56.28600 38042 ft 403 kts 274°
2026-04-28 18:30 54.49296 56.20613 38065 ft 401 kts 269°
2026-04-28 18:31 54.50082 56.11039 38068 ft 408 kts 275°
2026-04-28 18:31 54.51504 56.01588 38076 ft 413 kts 280°
2026-04-28 18:32 54.53244 55.92149 38079 ft 414 kts 281°
2026-04-28 18:32 54.55027 55.82652 38074 ft 414 kts 281°
2026-04-28 18:33 54.56731 55.73277 38066 ft 412 kts 280°
2026-04-28 18:33 54.58413 55.63841 38065 ft 411 kts 280°
2026-04-28 18:34 54.60082 55.54401 38060 ft 411 kts 280°
2026-04-28 18:34 54.61743 55.44956 38045 ft 412 kts 280°
2026-04-28 18:35 54.63398 55.35507 38028 ft 411 kts 280°
2026-04-28 18:35 54.65049 55.26040 38019 ft 411 kts 280°
2026-04-28 18:36 54.66652 55.16575 38017 ft 411 kts 279°
2026-04-28 18:36 54.68196 55.07076 38012 ft 410 kts 279°
2026-04-28 18:37 54.69726 54.97572 38052 ft 411 kts 278°
2026-04-28 18:37 54.71258 54.88021 38011 ft 413 kts 278°
2026-04-28 18:38 54.72793 54.78434 38000 ft 414 kts 278°
2026-04-28 18:38 54.74324 54.68824 38000 ft 414 kts 278°
2026-04-28 18:39 54.75838 54.59270 37996 ft 414 kts 278°
2026-04-28 18:39 54.77351 54.49661 37996 ft 414 kts 278°
2026-04-28 18:40 54.78857 54.40037 37996 ft 414 kts 278°
2026-04-28 18:40 54.80356 54.30401 38000 ft 415 kts 278°
2026-04-28 18:41 54.81852 54.20726 37993 ft 416 kts 278°
2026-04-28 18:41 54.83350 54.11030 37992 ft 416 kts 278°
2026-04-28 18:42 54.84848 54.01326 37984 ft 416 kts 278°
2026-04-28 18:42 54.86338 53.91633 37985 ft 415 kts 278°
2026-04-28 18:43 54.87817 53.81937 37978 ft 415 kts 278°
2026-04-28 18:43 54.89286 53.72246 37976 ft 415 kts 278°
2026-04-28 18:44 54.90749 53.62534 37978 ft 415 kts 278°
2026-04-28 18:44 54.92939 53.47955 37970 ft 415 kts 278°
2026-04-28 18:45 54.94389 53.38239 37970 ft 415 kts 278°
2026-04-28 18:45 54.95833 53.28502 37962 ft 415 kts 278°
2026-04-28 18:46 54.97264 53.18762 37963 ft 415 kts 277°
2026-04-28 18:46 54.98682 53.09021 37963 ft 415 kts 277°
2026-04-28 18:47 55.00095 52.99256 37951 ft 417 kts 278°
2026-04-28 18:47 55.01505 52.89452 37949 ft 418 kts 278°
2026-04-28 18:48 55.02890 52.79827 37779 ft 398 kts 278°
2026-04-28 18:48 55.03555 52.75199 37554 ft 390 kts 277°
2026-04-28 18:48 55.04204 52.70657 37278 ft 383 kts 277°
2026-04-28 18:49 55.04838 52.66191 36974 ft 376 kts 277°
2026-04-28 18:49 55.05250 52.63268 36764 ft 372 kts 277°
2026-04-28 18:49 55.06068 52.57462 36335 ft 365 kts 276°
2026-04-28 18:49 55.06667 52.53191 36014 ft 360 kts 276°
2026-04-28 18:50 55.07256 52.48978 35698 ft 355 kts 276°
2026-04-28 18:50 55.07829 52.44879 35389 ft 350 kts 275°
2026-04-28 18:50 55.08400 52.40778 35097 ft 346 kts 276°
2026-04-28 18:50 55.08964 52.36706 34713 ft 344 kts 275°
2026-04-28 18:51 55.09523 52.32663 34351 ft 341 kts 275°
2026-04-28 18:51 55.10077 52.28653 34003 ft 338 kts 275°
2026-04-28 18:51 55.10624 52.24680 33620 ft 335 kts 275°
2026-04-28 18:51 55.11164 52.20756 33244 ft 331 kts 275°
2026-04-28 18:52 55.11706 52.16813 32860 ft 327 kts 275°
2026-04-28 18:52 55.12227 52.13013 32498 ft 324 kts 274°
2026-04-28 18:52 55.12746 52.09210 32142 ft 320 kts 274°
2026-04-28 18:52 55.13259 52.05446 31799 ft 316 kts 274°
2026-04-28 18:53 55.13765 52.01726 31446 ft 313 kts 274°
2026-04-28 18:53 55.14263 51.98049 31112 ft 309 kts 273°
2026-04-28 18:53 55.14755 51.94412 30779 ft 305 kts 273°
2026-04-28 18:53 55.15239 51.90820 30455 ft 302 kts 273°
2026-04-28 18:54 55.15717 51.87270 30132 ft 298 kts 272°
2026-04-28 18:54 55.16188 51.83761 29775 ft 295 kts 272°
2026-04-28 18:54 55.16651 51.80300 29377 ft 291 kts 272°
2026-04-28 18:54 55.17109 51.76866 29038 ft 289 kts 274°
2026-04-28 18:55 55.17561 51.73453 28613 ft 287 kts 274°
2026-04-28 18:55 55.17865 51.71153 28326 ft 286 kts 274°
2026-04-28 18:55 55.18458 51.66663 27786 ft 285 kts 274°
2026-04-28 18:55 55.18901 51.63298 27392 ft 284 kts 274°
2026-04-28 18:56 55.19343 51.59939 27008 ft 283 kts 274°
2026-04-28 18:56 55.19784 51.56593 26630 ft 282 kts 275°
2026-04-28 18:56 55.20222 51.53259 26249 ft 280 kts 275°
2026-04-28 18:56 55.20657 51.49936 25879 ft 279 kts 275°
2026-04-28 18:57 55.21090 51.46625 25524 ft 279 kts 275°
2026-04-28 18:57 55.21521 51.43325 25170 ft 278 kts 275°
2026-04-28 18:57 55.21949 51.40036 24823 ft 277 kts 276°
2026-04-28 18:57 55.22375 51.36755 24498 ft 275 kts 276°
2026-04-28 18:58 55.22799 51.33489 24168 ft 274 kts 276°
2026-04-28 18:58 55.23219 51.30238 23847 ft 273 kts 276°
2026-04-28 18:58 55.23638 51.26997 23527 ft 272 kts 276°
2026-04-28 18:58 55.24053 51.23769 23132 ft 271 kts 276°
2026-04-28 18:59 55.24466 51.20559 22758 ft 270 kts 276°
2026-04-28 18:59 55.24877 51.17356 22372 ft 269 kts 276°
2026-04-28 18:59 55.25284 51.14169 22002 ft 267 kts 276°
2026-04-28 18:59 55.25689 51.10997 21668 ft 266 kts 277°
2026-04-28 19:00 55.26092 51.07836 21302 ft 265 kts 276°
2026-04-28 19:00 55.26492 51.04692 20948 ft 264 kts 276°
2026-04-28 19:00 55.26882 51.01560 20600 ft 262 kts 276°
2026-04-28 19:00 55.27255 50.98444 20248 ft 261 kts 275°
2026-04-28 19:01 55.27621 50.95339 19912 ft 259 kts 275°
2026-04-28 19:01 55.27984 50.92248 19577 ft 258 kts 275°
2026-04-28 19:01 55.28339 50.89213 19251 ft 257 kts 275°
2026-04-28 19:01 55.28697 50.86152 18932 ft 256 kts 275°
2026-04-28 19:02 55.29052 50.83104 18611 ft 254 kts 275°
2026-04-28 19:02 55.29405 50.80071 18296 ft 253 kts 274°
2026-04-28 19:02 55.29756 50.77053 17954 ft 252 kts 274°
2026-04-28 19:02 55.30103 50.74056 17611 ft 250 kts 275°
2026-04-28 19:03 55.30447 50.71076 17266 ft 248 kts 275°
2026-04-28 19:03 55.30789 50.68115 16934 ft 247 kts 275°
2026-04-28 19:03 55.31127 50.65173 16612 ft 245 kts 275°
2026-04-28 19:03 55.31462 50.62254 16287 ft 243 kts 275°
2026-04-28 19:04 55.31794 50.59357 15963 ft 241 kts 275°
2026-04-28 19:04 55.32123 50.56479 15666 ft 239 kts 275°
2026-04-28 19:04 55.32448 50.53632 15358 ft 237 kts 275°
2026-04-28 19:04 55.32770 50.50797 15055 ft 235 kts 275°
2026-04-28 19:05 55.33088 50.47997 14768 ft 233 kts 275°
2026-04-28 19:05 55.33403 50.45220 14482 ft 231 kts 274°
2026-04-28 19:05 55.33716 50.42460 14216 ft 229 kts 273°
2026-04-28 19:05 55.34025 50.39719 13888 ft 229 kts 273°
2026-04-28 19:06 55.34337 50.36938 13435 ft 229 kts 273°
2026-04-28 19:06 55.34539 50.35128 13123 ft 228 kts 273°
2026-04-28 19:06 55.34943 50.31529 12551 ft 225 kts 273°
2026-04-28 19:06 55.35244 50.28843 12134 ft 223 kts 273°
2026-04-28 19:07 55.35541 50.26190 11721 ft 220 kts 274°
2026-04-28 19:07 55.35834 50.23559 11313 ft 218 kts 274°
2026-04-28 19:07 55.36123 50.20956 10913 ft 216 kts 274°
2026-04-28 19:07 55.36409 50.18379 10517 ft 214 kts 274°
2026-04-28 19:08 55.36691 50.15825 10113 ft 212 kts 274°
2026-04-28 19:08 55.36971 50.13293 9716 ft 210 kts 274°
2026-04-28 19:08 55.37247 50.10791 9269 ft 208 kts 274°
2026-04-28 19:08 55.37527 50.08301 8821 ft 208 kts 277°
2026-04-28 19:09 55.37986 50.05866 8377 ft 210 kts 283°
2026-04-28 19:09 55.38520 50.03479 7951 ft 210 kts 284°
2026-04-28 19:09 55.39076 50.01109 7528 ft 208 kts 285°
2026-04-28 19:09 55.39636 49.98772 7093 ft 207 kts 285°
2026-04-28 19:10 55.40775 49.94073 6250 ft 205 kts 285°
2026-04-28 19:10 55.41334 49.91776 5823 ft 204 kts 285°
2026-04-28 19:10 55.41891 49.89482 5393 ft 203 kts 285°
2026-04-28 19:11 55.43401 49.83262 4351 ft 207 kts 286°
2026-04-28 19:11 55.43784 49.81686 4106 ft 208 kts 286°
2026-04-28 19:12 55.45820 49.73281 2910 ft 210 kts 286°
2026-04-28 19:12 55.46392 49.70917 2570 ft 209 kts 286°
2026-04-28 19:13 55.46908 49.68785 2268 ft 209 kts 286°
2026-04-28 19:13 55.47476 49.66433 1962 ft 207 kts 285°
2026-04-28 19:13 55.48036 49.64115 2191 ft 206 kts 285°
2026-04-28 19:13 55.48593 49.61803 2586 ft 202 kts 285°
2026-04-28 19:14 55.49139 49.59537 2676 ft 201 kts 285°
2026-04-28 19:14 55.49683 49.57269 2680 ft 201 kts 285°
2026-04-28 19:14 55.50253 49.55011 2681 ft 201 kts 290°
2026-04-28 19:14 55.50938 49.52988 2683 ft 185 kts 294°
2026-04-28 19:15 55.51641 49.51101 2669 ft 183 kts 295°